Temp
19 19 19 17 18 17 17 17 17 17 17 17 17 17 17 17 17 16 16 17 16 16 16 16 16 16 16 16 16 15 16 15 15 15 14 15 14 14 15 14 14 14 15
20 20 19 18 18 17 17 17 17 17 17 17 17 17 17 17 17 17 17 16 16 16 16 16 16 16 16 16 15 16 16 15 16 15 15 16 15 15 14 14 15 15 15
21 19 19 18 18 17 17 17 17 17 17 17 17 17 17 17 17 17 16 16 16 16 16 16 16 16 15 16 16 16 16 15 15 15 14 13 15 15 15 15 15 15 15
20 20 19 18 18 18 17 17 17 17 17 17 17 17 17 16 16 16 16 16 16 16 16 16 16 16 16 16 16 16 16 15 15 14 14 14 13 14 15 15 15 15 15
18 18 19 19 18 18 18 17 17 17 17 17 17 17 17 16 16 16 16 16 16 16 16 16 16 16 16 16 16 16 16 16 15 14 14 14 13 14 15 14 15 14 15
17 16 19 19 18 18 18 17 17 17 17 17 17 17 16 16 16 16 16 16 16 16 16 16 16 16 16 16 16 16 16 15 14 15 14 14 13 15 15 15 14 14 14
16 17 19 18 18 18 18 18 18 17 17 17 17 17 16 16 16 16 16 16 16 16 16 16 16 16 16 16 16 16 15 15 14 14 14 14 14 15 15 14 14 14 14
16 17 18 18 17 18 17 18 18 17 17 17 17 16 16 16 16 16 16 16 16 16 16 16 16 16 16 15 15 15 15 15 13 13 13 13 14 14 14 14 14 14 14
15 17 16 17 16 17 17 17 17 16 16 16 16 16 16 16 16 16 16 15 16 16 16 15 15 15 15 15 15 15 14 14 13 13 13 12 13 14 14 14 14 14 14
15 16 15 14 15 15 16 17 16 15 15 15 16 16 16 16 16 16 16 15 15 15 15 15 15 15 15 15 14 14 14 14 13 13 13 13 13 14 14 14 14 14 14
15 16 15 14 14 14 14 14 15 14 15 15 15 16 15 15 15 15 15 15 15 15 15 15 15 15 15 15 14 14 14 13 13 13 13 13 14 14 14 14 13 14 14
14 15 15 14 15 14 14 14 14 14 15 15 15 15 15 15 15 14 15 15 15 14 14 14 15 15 15 15 14 14 12 13 13 13 13 13 14 14 14 14 14 14 14
14 14 15 15 14 14 14 14 14 15 15 15 15 15 15 15 15 15 15 14 14 14 15 14 14 14 14 15 14 14 14 13 13 13 13 13 13 14 14 13 13 14 14
14 14 14 14 15 14 14 14 15 15 15 15 15 16 15 15 15 15 14 14 14 15 15 14 14 14 14 14 14 13 13 14 13 13 13 13 13 14 14 13 13 14 13
13 14 15 14 14 14 14 15 15 15 15 15 15 16 15 15 15 15 15 15 15 15 14 14 14 14 14 14 14 14 14 13 13 13 13 13 13 13 13 13 13 13 13
12 14 14 14 14 15 15 15 15 15 15 14 15 15 14 15 15 15 15 15 15 14 14 14 14 14 14 14 14 14 14 13 13 13 13 12 13 13 13 13 13 13 13
12 13 14 14 14 14 15 14 14 15 14 14 15 15 15 15 15 15 15 15 15 14 14 14 14 14 14 13 13 14 14 14 13 13 13 12 12 12 13 13 13 13 13
11 12 14 14 14 15 14 14 14 13 14 15 14 14 15 15 15 14 15 15 14 14 14 13 14 13 13 13 13 13 13 13 13 13 13 13 12 12 12 12 12 12 12
10 12 13 14 14 14 14 13 14 14 13 14 14 14 14 15 14 14 14 13 14 14 14 13 13 13 13 13 13 13 13 13 13 13 13 12 12 12 12 12 12 12 11
9 11 12 13 14 14 14 14 13 14 13 14 14 14 14 14 14 13 13 13 13 13 13 13 13 13 13 13 13 13 13 13 12 12 12 12 12 12 12 12 12 11 11
8 10 11 13 13 13 13 13 13 13 13 14 15 15 13 14 14 13 13 13 13 13 13 12 12 12 12 12 12 12 12 12 13 12 13 12 12 12 12 12 12 11 11
7 9 11 12 12 12 12 13 12 13 13 14 14 14 13 14 13 13 13 12 12 12 12 12 12 12 12 12 11 11 10 11 12 12 13 13 13 12 12 12 11 11 11
5 8 10 11 11 12 12 12 12 12 12 13 13 13 14 13 13 13 12 13 12 12 12 11 12 12 12 11 11 11 10 11 12 12 12 13 12 13 13 12 11 11 11
4 6 9 8 9 11 12 12 12 12 12 12 12 13 14 13 13 13 12 12 12 12 12 12 12 12 12 12 11 11 12 12 11 11 11 12 12 11 12 11 11 11 11
4 5 7 7 7 10 11 11 11 11 11 12 12 12 13 12 12 12 11 12 12 12 12 12 12 11 12 11 12 12 11 12 12 12 12 12 11 11 11 11 12 11 11
4 5 5 6 8 6 10 11 11 11 11 11 11 11 12 12 12 12 12 11 12 12 12 12 12 11 12 11 12 11 12 12 12 12 12 13 12 11 10 10 11 11 11
Height
1497 1499 1502 1507 1511 1514 1517 1520 1522 1524 1526 1528 1529 1531 1533 1535 1537 1538 1539 1540 1541 1542 1543 1544 1546 1547 1548 1548 1549 1551 1551 1552 1553 1553 1554 1554 1555 1555 1556 1556 1556 1557 1557
1495 1499 1502 1506 1510 1514 1517 1520 1522 1525 1527 1528 1530 1532 1534 1536 1538 1540 1541 1542 1542 1544 1545 1547 1548 1549 1550 1551 1552 1553 1554 1555 1556 1556 1557 1558 1558 1559 1559 1559 1559 1559 1560
1495 1499 1503 1506 1510 1513 1517 1520 1523 1525 1527 1529 1531 1533 1535 1537 1539 1541 1543 1544 1545 1546 1547 1549 1550 1552 1552 1553 1554 1556 1556 1558 1559 1560 1560 1561 1561 1562 1562 1562 1562 1562 1562
1495 1498 1502 1506 1510 1513 1516 1519 1522 1525 1527 1530 1532 1534 1536 1539 1541 1542 1544 1546 1547 1548 1550 1550 1552 1554 1555 1556 1557 1558 1559 1560 1562 1563 1564 1565 1565 1564 1565 1565 1565 1565 1565
1495 1498 1501 1505 1509 1513 1516 1518 1522 1525 1528 1530 1532 1535 1537 1540 1542 1544 1545 1547 1549 1550 1552 1553 1554 1556 1557 1558 1559 1560 1561 1562 1564 1567 1568 1568 1567 1567 1568 1568 1568 1568 1568
1495 1499 1500 1504 1508 1512 1515 1518 1521 1524 1527 1530 1532 1535 1538 1541 1543 1544 1547 1548 1551 1552 1553 1554 1556 1557 1559 1560 1560 1562 1563 1564 1566 1567 1569 1568 1570 1570 1570 1570 1570 1571 1571
1496 1498 1500 1504 1508 1512 1515 1518 1521 1524 1527 1529 1533 1536 1539 1541 1544 1546 1548 1550 1552 1553 1555 1556 1557 1559 1560 1561 1562 1563 1565 1566 1570 1571 1571 1572 1572 1572 1573 1573 1573 1574 1574
1497 1496 1500 1504 1507 1511 1515 1518 1521 1524 1527 1529 1532 1536 1539 1542 1545 1547 1550 1552 1553 1555 1556 1558 1559 1560 1561 1562 1564 1565 1566 1568 1571 1572 1573 1574 1573 1574 1575 1576 1576 1577 1578
1496 1496 1499 1503 1508 1511 1514 1518 1520 1523 1527 1530 1533 1536 1539 1542 1545 1548 1551 1552 1555 1556 1558 1559 1561 1561 1562 1563 1565 1567 1568 1569 1572 1574 1575 1575 1575 1576 1577 1578 1579 1579 1580
1494 1495 1499 1503 1507 1510 1514 1517 1520 1523 1527 1530 1533 1536 1539 1542 1546 1548 1551 1553 1556 1558 1559 1560 1562 1563 1563 1564 1566 1568 1570 1571 1573 1574 1576 1576 1577 1578 1579 1580 1581 1581 1582
1491 1495 1498 1501 1505 1510 1513 1517 1520 1523 1526 1530 1533 1536 1539 1542 1545 1548 1550 1553 1556 1558 1560 1562 1563 1564 1564 1565 1567 1569 1571 1574 1574 1576 1576 1577 1579 1579 1580 1582 1582 1583 1584
1491 1493 1496 1501 1504 1508 1512 1515 1519 1522 1524 1529 1532 1535 1538 1540 1544 1548 1550 1553 1555 1558 1560 1563 1564 1565 1566 1567 1568 1570 1572 1574 1576 1576 1577 1578 1580 1581 1582 1583 1584 1585 1585
1491 1492 1494 1497 1502 1506 1510 1513 1517 1520 1523 1526 1529 1533 1536 1539 1541 1545 1548 1552 1554 1556 1559 1562 1565 1566 1567 1568 1569 1570 1573 1574 1576 1577 1577 1579 1580 1582 1583 1584 1584 1585 1586
1489 1491 1494 1497 1501 1505 1508 1511 1514 1517 1519 1521 1525 1529 1533 1535 1538 1542 1546 1549 1552 1554 1558 1561 1564 1565 1567 1568 1570 1571 1572 1573 1575 1576 1577 1579 1581 1582 1584 1585 1586 1586 1587
1484 1489 1491 1494 1498 1502 1505 1508 1510 1513 1516 1519 1522 1526 1530 1533 1536 1540 1543 1547 1550 1554 1557 1559 1562 1565 1567 1568 1569 1571 1572 1574 1575 1576 1578 1579 1581 1582 1584 1585 1585 1586 1587
1480 1485 1487 1489 1494 1497 1501 1504 1507 1510 1514 1517 1520 1523 1527 1530 1533 1537 1541 1544 1548 1552 1555 1557 1560 1563 1565 1567 1569 1571 1572 1574 1575 1577 1578 1580 1581 1581 1583 1584 1585 1586 1587
1475 1479 1482 1486 1491 1493 1496 1501 1505 1506 1512 1515 1518 1520 1524 1527 1531 1534 1538 1541 1545 1549 1553 1555 1557 1560 1563 1566 1568 1570 1572 1573 1575 1576 1578 1579 1580 1581 1582 1583 1584 1586 1586
1474 1475 1477 1482 1487 1490 1493 1497 1501 1505 1508 1511 1515 1519 1521 1523 1529 1532 1535 1539 1543 1547 1551 1554 1556 1558 1560 1564 1567 1569 1570 1572 1574 1575 1577 1578 1579 1580 1581 1582 1583 1584 1585
1472 1473 1474 1475 1482 1487 1491 1495 1497 1501 1504 1508 1512 1515 1517 1520 1524 1529 1532 1536 1540 1543 1547 1551 1553 1556 1558 1560 1564 1566 1568 1571 1572 1574 1575 1576 1577 1578 1579 1580 1582 1583 1583
1471 1470 1470 1473 1478 1484 1488 1491 1493 1497 1501 1503 1507 1511 1513 1516 1520 1525 1529 1533 1536 1540 1544 1547 1550 1554 1557 1558 1560 1563 1565 1568 1570 1571 1572 1574 1575 1576 1577 1578 1579 1581 1581
1468 1468 1468 1470 1474 1478 1482 1484 1488 1490 1496 1499 1503 1506 1509 1512 1516 1521 1524 1528 1533 1536 1540 1544 1547 1550 1553 1555 1558 1560 1562 1564 1566 1568 1569 1571 1572 1573 1574 1576 1577 1578 1580
1465 1468 1465 1466 1470 1473 1475 1479 1483 1486 1490 1494 1497 1500 1504 1507 1511 1515 1519 1522 1527 1532 1536 1539 1542 1545 1549 1552 1554 1558 1558 1562 1562 1564 1565 1566 1567 1569 1570 1572 1574 1576 1577
1468 1466 1464 1463 1464 1468 1469 1472 1477 1482 1486 1489 1492 1494 1497 1502 1507 1510 1514 1519 1523 1528 1530 1533 1537 1539 1544 1548 1550 1555 1554 1554 1556 1558 1560 1561 1562 1564 1565 1567 1570 1572 1574
1468 1463 1462 1462 1461 1462 1465 1466 1471 1476 1479 1482 1486 1490 1492 1496 1501 1506 1510 1514 1518 1522 1524 1528 1532 1535 1538 1543 1547 1546 1548 1548 1550 1553 1554 1555 1557 1559 1561 1563 1566 1568 1571
1468 1466 1461 1466 1462 1456 1458 1465 1468 1471 1474 1477 1481 1486 1488 1491 1496 1500 1504 1508 1512 1515 1519 1522 1526 1529 1532 1537 1540 1541 1543 1545 1545 1547 1548 1550 1553 1554 1556 1558 1561 1564 1566
1468 1467 1466 1467 1465 1458 1456 1460 1461 1465 1469 1472 1476 1480 1483 1486 1490 1494 1498 1502 1506 1509 1513 1517 1519 1524 1527 1531 1534 1536 1537 1539 1540 1542 1543 1545 1546 1548 1551 1554 1556 1558 1560
Wind_Speed
24 32 34 32 29 27 24 22 21 20 18 17 18 18 20 19 18 17 17 16 17 19 19 21 22 22 22 23 23 22 22 21 20 22 22 22 23 22 22 19 20 21 19
28 32 33 32 30 28 26 23 21 20 19 17 17 18 19 19 18 17 16 17 18 19 21 21 22 22 23 23 21 22 21 21 21 22 22 21 22 22 21 20 21 18 17
30 32 33 32 31 29 27 24 22 20 18 18 17 18 19 18 18 16 17 17 19 21 20 22 22 22 22 21 21 20 19 19 19 21 20 19 21 20 19 16 17 16 17
31 32 34 33 32 30 28 26 23 20 19 19 19 18 19 19 17 18 18 18 18 20 19 20 20 21 21 19 17 17 16 16 17 20 16 18 17 18 18 18 18 20 20
31 30 33 34 32 31 29 26 23 21 20 20 20 20 20 19 18 19 18 19 19 20 19 19 19 18 17 16 15 14 14 16 16 18 16 15 15 17 17 16 19 20 19
30 28 32 34 32 31 29 27 24 22 22 22 21 21 21 19 19 19 19 19 17 17 18 18 17 15 14 13 13 14 16 17 18 15 15 17 15 14 14 16 19 20 21
29 30 32 34 33 31 29 27 26 24 22 23 23 23 21 20 20 20 18 18 17 18 18 17 15 14 13 13 13 15 17 18 14 13 14 13 12 13 14 16 17 18 20
28 33 33 34 33 32 29 28 26 26 24 24 23 23 21 21 21 20 18 17 18 18 17 16 15 13 13 13 14 16 17 16 14 12 12 10 12 12 14 15 16 18 19
27 33 34 34 33 31 30 28 27 26 25 25 25 23 22 22 22 20 19 17 19 18 17 15 13 12 12 14 15 16 17 15 12 12 12 11 12 14 15 16 17 18 18
30 34 33 29 30 31 30 30 28 27 25 25 25 24 23 22 21 21 19 19 19 18 17 15 12 11 13 15 15 15 15 14 13 13 11 13 13 14 14 16 16 16 16
29 33 32 30 30 28 27 30 29 28 28 26 25 24 24 23 22 21 20 21 20 18 17 14 12 12 14 16 16 15 16 12 13 12 11 14 13 15 15 15 16 15 14
32 34 34 29 32 29 28 29 29 30 30 28 27 27 25 25 24 22 21 23 22 20 18 15 12 12 13 16 16 15 13 15 13 13 11 11 13 15 15 15 13 11 9
31 36 36 35 31 29 29 30 30 32 31 31 30 30 30 29 29 26 25 25 24 22 20 17 14 14 14 16 17 16 17 15 14 14 14 13 13 15 15 13 11 10 10
30 32 37 35 33 30 28 31 33 35 37 34 34 33 32 32 31 29 27 28 27 25 20 19 17 15 14 15 16 17 18 17 18 17 16 16 11 14 13 13 11 10 12
25 34 39 39 38 34 32 37 37 39 39 37 35 34 33 33 33 31 31 29 29 24 22 22 20 18 17 16 17 17 17 16 17 17 17 16 15 14 14 12 11 11 11
25 31 38 42 39 37 38 39 39 38 38 37 37 36 35 34 34 33 32 30 28 26 26 24 21 20 19 17 17 17 17 17 17 17 16 15 14 13 12 12 12 12 12
21 28 33 40 40 40 42 38 41 41 39 39 38 37 36 35 34 33 32 31 29 28 27 25 23 21 20 19 19 18 18 17 17 17 17 16 14 12 11 12 13 14 14
14 27 31 39 41 43 40 40 40 40 41 40 39 37 36 36 34 34 32 31 30 30 28 26 25 24 22 20 20 19 18 18 17 17 17 17 16 14 14 13 13 15 17
12 21 35 33 43 40 43 43 41 40 41 41 39 39 38 37 36 34 33 33 31 32 30 28 27 25 24 22 21 21 19 18 17 18 18 17 17 17 16 15 15 16 19
9 15 26 36 35 41 42 42 43 41 37 43 43 42 41 39 37 35 34 33 33 33 32 31 29 27 25 24 23 21 21 20 20 20 19 19 20 19 18 16 16 17 18
7 9 22 30 37 38 40 45 43 40 43 44 43 43 42 41 38 37 34 34 34 33 34 31 30 30 29 27 25 24 22 22 22 23 21 20 21 21 20 18 17 18 19
6 6 14 26 33 35 42 43 39 42 42 43 43 44 43 42 40 37 40 36 37 36 35 34 34 33 32 31 28 24 17 22 24 25 23 22 23 22 22 21 20 20 21
11 5 9 17 20 37 32 39 35 37 37 43 43 45 42 42 39 37 39 36 36 37 39 37 38 37 35 33 32 15 10 11 23 26 25 24 22 22 23 25 22 23 24
20 5 7 10 10 26 33 31 33 34 38 41 47 44 43 41 39 40 37 34 35 37 40 37 39 39 38 36 35 34 21 13 12 13 25 25 23 21 19 22 21 23 27
19 17 11 14 5 15 16 31 33 34 32 37 39 43 41 38 39 41 37 37 36 37 38 37 40 41 42 37 39 38 33 22 17 12 16 25 26 25 24 26 25 24 33
12 15 15 5 11 4 18 20 29 27 40 38 32 38 39 40 42 39 38 37 36 36 39 39 37 41 43 41 41 42 40 35 32 24 20 20 29 29 28 31 28 29 37
Wind_Direction
188 175 171 173 172 169 164 159 158 157 156 151 147 146 143 139 137 133 131 128 124 123 125 120 120 120 123 121 120 119 114 110 106 105 104 100 100 100 97 101 103 106 103
181 179 173 174 175 173 168 165 162 162 159 157 152 150 147 144 142 137 131 130 128 131 131 128 128 127 125 124 122 121 119 116 111 108 105 101 101 103 106 105 106 109 101
184 179 174 175 177 176 173 171 168 167 166 164 161 156 154 149 148 145 138 134 132 135 135 132 130 131 132 129 125 123 118 117 114 114 99 103 105 104 108 108 103 105 107
182 181 177 178 180 180 178 176 175 173 172 171 168 164 160 156 151 148 143 140 142 141 142 140 137 134 131 128 126 123 122 122 121 99 109 109 108 101 102 105 104 107 110
181 182 181 179 182 183 181 181 180 178 177 175 170 167 165 162 157 152 150 150 150 146 150 146 136 133 133 133 131 129 127 125 125 113 120 118 114 105 108 103 112 109 106
182 181 186 182 184 184 183 182 184 182 179 173 171 168 167 167 163 159 159 155 155 153 148 145 142 141 139 138 137 132 129 128 109 117 127 124 116 111 116 112 117 114 109
182 188 188 185 185 186 186 184 184 181 177 171 170 168 171 170 167 166 163 162 157 153 152 150 148 147 147 146 142 137 135 131 124 123 115 115 122 123 126 122 120 123 116
184 193 190 186 187 187 187 186 182 180 176 173 171 170 170 172 172 171 167 162 161 160 156 154 155 155 156 153 148 143 141 138 123 127 126 128 129 135 138 132 127 131 124
188 193 189 186 189 189 188 187 182 178 176 173 172 171 173 173 173 172 171 166 166 163 159 158 159 159 159 157 153 151 147 143 128 129 124 125 124 133 142 139 133 132 130
198 191 189 181 186 188 188 188 182 177 174 174 176 176 177 175 175 174 173 172 170 167 165 164 164 161 160 159 157 157 153 144 139 133 131 126 135 137 142 146 143 138 136
196 189 191 183 183 184 185 184 181 178 180 179 181 181 179 177 178 176 179 174 175 173 172 171 168 165 159 157 158 161 156 152 144 137 136 127 140 145 144 147 146 146 141
201 193 195 186 185 184 183 184 183 182 183 183 184 182 180 180 181 177 180 178 179 181 178 177 169 161 162 160 160 162 167 155 150 152 145 140 148 154 155 160 158 160 158
209 201 194 194 189 185 185 185 185 187 184 186 188 185 187 182 184 185 180 182 188 187 184 179 172 171 171 169 168 167 168 164 160 162 156 146 154 161 159 161 164 169 165
221 208 203 200 191 190 187 188 191 191 189 190 189 193 191 190 189 188 182 189 192 193 188 182 182 180 178 174 173 170 174 177 174 168 157 154 161 162 165 163 166 163 162
220 215 210 205 196 196 192 194 196 197 195 194 193 195 198 197 195 191 192 195 197 194 188 189 187 185 186 185 182 182 181 180 178 175 169 168 171 174 173 178 180 184 178
230 220 216 211 200 200 200 201 199 200 201 198 197 197 201 203 200 196 196 199 198 194 194 194 193 191 193 192 191 190 189 187 185 183 182 183 186 186 186 196 196 196 196
220 217 214 214 208 205 206 204 202 204 205 203 202 200 203 208 207 205 202 201 200 197 200 198 197 197 198 199 197 195 196 196 194 193 190 192 197 203 200 198 203 203 204
241 220 209 220 212 213 210 207 209 208 206 209 206 205 206 210 211 208 208 206 203 202 203 204 202 202 201 203 201 201 202 202 203 199 197 201 206 206 204 209 208 209 209
264 225 211 208 219 217 215 216 210 209 211 212 209 209 210 212 213 215 211 211 206 205 205 206 206 208 206 204 203 205 207 208 205 203 203 208 212 215 217 220 226 222 213
287 240 224 213 216 222 220 220 218 218 207 217 214 213 213 215 215 213 221 215 214 209 207 206 209 209 213 209 206 208 211 213 212 211 214 220 221 224 225 225 227 221 219
288 266 230 218 218 220 219 219 217 216 216 223 221 218 217 217 214 218 218 215 220 215 210 210 210 213 209 210 208 207 213 217 219 221 224 229 227 225 225 227 221 217 215
338 307 218 211 215 220 221 225 221 218 219 228 224 220 219 223 219 219 216 226 222 211 212 213 212 211 215 212 206 208 210 220 224 227 230 232 227 229 229 226 212 218 216
3 341 260 210 210 220 226 223 221 224 236 229 224 224 223 223 223 222 222 226 223 221 215 215 214 215 215 214 208 201 198 215 224 232 234 234 230 230 232 221 218 222 216
12 359 290 292 207 211 212 211 221 225 216 222 226 228 228 227 226 228 226 227 229 226 220 222 218 219 219 223 215 211 212 207 196 224 229 231 231 225 219 208 212 212 212
16 15 270 298 306 209 211 217 223 227 227 229 230 230 232 229 232 227 229 228 228 229 225 224 223 222 223 227 228 222 217 221 220 218 227 228 230 221 211 205 216 223 213
2 19 16 280 312 63 184 205 213 221 232 226 233 239 227 231 228 231 230 232 231 230 230 228 229 228 228 232 233 230 229 227 231 227 232 238 231 223 215 216 216 221 217